"Platform","Saginaw Bay ReCON Buoy"
"NDBC ID","45163"
"Latitude (deg)",43.98440
"Longitude (deg)",-83.59753
"Water Depth (m)",12.7
"Sensor Device","AirMar Weather Station Model 200WX"
"Sensor Serial No.","60221354"
"Sensor Height","2.5 meters above water surface"
"Sensor Type","GPS Latitude: Offset from initial deployment position"
"Sensor Units","meters north"
"Measurement","A sample"
"Time means","Time at sample (UTC time zone)"

"Note:","This data was collected for research purposes."
"Note:","Minimal quality checking has been performed so data may contain known or unknown errors."
"Note:","Data provided by NOAA. Please credit NOAA."
"Note:","For more info see www.glerl.noaa.gov/res/recon"

"Time (UTC)","North"
"YYYY/MM/DD HH:MM","m"
2024/05/16 14:28, 9993.9
2024/05/16 14:30, 8846.3
2024/05/16 14:32, 7709.7
2024/05/16 14:34, 6568.9
2024/05/16 14:36, 5431.3
2024/05/16 14:38, 4292.6
2024/05/16 14:40, 3170.5
2024/05/16 14:42, 2292.7
2024/05/16 14:44, 1635.1
2024/05/16 14:46, 991.0
2024/05/16 14:48, 351.4
2024/05/16 14:50, -15.6
2024/05/16 14:52, -21.1
2024/05/16 14:54, -13.3
2024/05/16 14:56, -12.2
2024/05/16 14:58, 34.5
2024/05/16 15:00, 42.3
2024/05/16 15:02, 18.9
2024/05/16 15:04, 8.9
2024/05/16 15:06, -1.1
2024/05/16 15:08, -1.1
2024/05/16 15:10, -2.2
2024/05/16 15:12, -2.2
2024/05/16 15:14, -2.2
2024/05/16 15:16, -2.2
2024/05/16 15:18, -2.2
2024/05/16 15:20, -2.2
2024/05/16 15:22, -2.2
2024/05/16 15:24, -1.1
2024/05/16 15:26, -1.1
2024/05/16 15:28, -1.1
2024/05/16 15:30, -1.1
2024/05/16 15:32, 0.0
2024/05/16 15:34, 0.0
2024/05/16 15:36, 0.0
2024/05/16 15:38, 0.0
2024/05/16 15:40, 1.1
2024/05/16 15:42, 0.0
2024/05/16 15:44, -1.1
2024/05/16 15:46, -2.2
2024/05/16 15:48, -2.2
2024/05/16 15:50, -2.2
2024/05/16 15:52, -2.2
2024/05/16 15:54, -2.2
2024/05/16 15:56, -2.2
2024/05/16 15:58, -2.2
2024/05/16 16:00, -2.2
2024/05/16 16:02, -2.2
2024/05/16 16:04, -2.2
2024/05/16 16:06, -2.2
2024/05/16 16:08, -2.2
2024/05/16 16:10, -2.2
2024/05/16 16:12, -2.2
2024/05/16 16:14, -2.2
2024/05/16 16:16, -2.2
2024/05/16 16:18, -2.2
2024/05/16 16:20, -2.2
2024/05/16 16:22, -2.2
2024/05/16 16:24, -2.2
2024/05/16 16:26, -2.2
2024/05/16 16:28, -2.2
2024/05/16 16:30, -2.2
2024/05/16 16:32, -2.2
2024/05/16 16:34, -2.2
2024/05/16 16:36, -2.2
2024/05/16 16:38, -2.2
2024/05/16 16:40, -2.2
2024/05/16 16:42, -2.2
2024/05/16 16:44, -2.2
2024/05/16 16:46, -2.2
2024/05/16 16:48, -1.1
2024/05/16 16:50, -1.1
2024/05/16 16:52, -1.1
2024/05/16 16:54, -1.1
2024/05/16 16:56, 0.0
2024/05/16 16:58, -1.1
2024/05/16 17:00, -1.1
2024/05/16 17:02, -1.1
2024/05/16 17:04, -1.1
2024/05/16 17:06, -1.1
2024/05/16 17:08, -1.1
2024/05/16 17:10, -1.1
2024/05/16 17:12, -1.1
2024/05/16 17:14, 0.0
2024/05/16 17:16, -1.1
2024/05/16 17:18, -1.1
2024/05/16 17:20, -2.2
2024/05/16 17:22, -2.2
2024/05/16 17:24, -2.2
2024/05/16 17:26, -2.2
2024/05/16 17:28, -2.2
2024/05/16 17:30, -2.2
2024/05/16 17:32, -2.2
2024/05/16 17:34, -2.2
2024/05/16 17:36, -2.2
2024/05/16 17:38, -2.2
2024/05/16 17:40, -2.2
2024/05/16 17:42, -2.2
2024/05/16 17:44, -2.2
2024/05/16 17:46, -2.2
2024/05/16 17:48, -2.2
2024/05/16 17:50, -2.2
2024/05/16 17:52, -2.2
2024/05/16 17:54, -2.2
2024/05/16 17:56, -2.2
2024/05/16 17:58, -2.2
2024/05/16 18:00, -1.1
2024/05/16 18:02, -1.1
2024/05/16 18:04, -1.1
2024/05/16 18:06, -1.1
2024/05/16 18:08, -1.1
2024/05/16 18:10, -1.1
2024/05/16 18:12, -1.1
2024/05/16 18:14, 0.0
2024/05/16 18:16, -1.1
2024/05/16 18:18, -1.1
2024/05/16 18:20, 0.0
2024/05/16 18:22, -1.1
2024/05/16 18:24, -1.1
2024/05/16 18:26, -1.1
2024/05/16 18:28, -2.2
2024/05/16 18:30, -2.2
2024/05/16 18:32, -1.1
2024/05/16 18:34, -2.2
2024/05/16 18:36, -1.1
2024/05/16 18:38, -1.1
2024/05/16 18:40, -2.2
2024/05/16 18:42, -2.2
2024/05/16 18:44, -1.1
2024/05/16 18:46, -2.2
2024/05/16 18:48, -1.1
2024/05/16 18:50, -1.1
2024/05/16 18:52, -1.1
2024/05/16 18:54, -2.2
2024/05/16 18:56, -1.1
2024/05/16 18:58, -1.1
2024/05/16 19:00, -2.2
2024/05/16 19:02, -2.2
2024/05/16 19:04, -2.2
2024/05/16 19:06, -2.2
2024/05/16 19:08, -2.2
2024/05/16 19:10, -2.2
2024/05/16 19:12, -2.2
2024/05/16 19:14, -2.2
2024/05/16 19:16, -2.2
2024/05/16 19:18, -2.2
2024/05/16 19:20, -2.2
2024/05/16 19:22, -2.2
2024/05/16 19:24, -2.2
2024/05/16 19:26, -1.1
2024/05/16 19:28, -1.1
2024/05/16 19:30, -2.2
2024/05/16 19:32, -2.2
2024/05/16 19:34, -2.2
2024/05/16 19:36, -1.1
2024/05/16 19:38, -1.1
2024/05/16 19:40, -1.1
2024/05/16 19:42, -2.2
2024/05/16 19:44, -1.1
2024/05/16 19:46, -1.1
2024/05/16 19:48, 0.0
2024/05/16 19:50, 0.0
2024/05/16 19:52, 0.0
2024/05/16 19:54, 0.0
2024/05/16 19:56, 0.0
2024/05/16 19:58, 0.0
2024/05/16 20:00, -1.1
2024/05/16 20:02, -1.1
2024/05/16 20:04, -1.1
2024/05/16 20:06, -2.2
2024/05/16 20:08, -2.2
2024/05/16 20:10, -2.2
2024/05/16 20:12, -2.2
2024/05/16 20:14, -2.2
2024/05/16 20:16, -2.2
2024/05/16 20:18, -2.2
2024/05/16 20:20, -2.2
2024/05/16 20:22, -2.2
2024/05/16 20:24, -2.2
2024/05/16 20:26, -2.2
2024/05/16 20:28, -2.2
2024/05/16 20:30, -2.2
2024/05/16 20:32, -2.2
2024/05/16 20:34, -2.2
2024/05/16 20:36, -2.2
2024/05/16 20:38, -2.2
2024/05/16 20:40, -2.2
2024/05/16 20:42, -2.2
2024/05/16 20:44, -2.2
2024/05/16 20:46, -2.2
2024/05/16 20:48, -2.2
2024/05/16 20:50, -2.2
2024/05/16 20:52, -2.2
2024/05/16 20:54, -1.1
2024/05/16 20:56, -1.1
2024/05/16 20:58, -1.1
2024/05/16 21:00, -1.1
2024/05/16 21:02, -1.1
2024/05/16 21:04, -1.1
2024/05/16 21:06, -1.1
2024/05/16 21:08, -2.2
2024/05/16 21:10, -2.2
2024/05/16 21:12, -2.2
2024/05/16 21:14, -2.2
2024/05/16 21:16, -2.2
2024/05/16 21:18, -2.2
2024/05/16 21:20, -2.2
2024/05/16 21:22, -2.2
2024/05/16 21:24, -2.2
2024/05/16 21:26, -2.2
2024/05/16 21:28, -2.2
2024/05/16 21:30, -2.2
2024/05/16 21:32, -2.2
2024/05/16 21:34, -2.2
2024/05/16 21:36, -2.2
2024/05/16 21:38, -2.2
2024/05/16 21:40, -2.2
2024/05/16 21:42, -2.2
2024/05/16 21:44, -2.2
2024/05/16 21:46, -2.2
2024/05/16 21:48, -2.2
2024/05/16 21:50, -2.2
2024/05/16 21:52, -2.2
2024/05/16 21:54, -2.2
2024/05/16 21:56, -2.2
2024/05/16 21:58, -2.2
2024/05/16 22:00, -2.2
2024/05/16 22:02, -2.2
2024/05/16 22:04, -2.2
2024/05/16 22:06, -2.2
2024/05/16 22:08, -2.2
2024/05/16 22:10, -2.2
2024/05/16 22:12, -2.2
2024/05/16 22:14, -2.2
2024/05/16 22:16, -2.2
2024/05/16 22:18, -2.2
2024/05/16 22:20, -2.2
2024/05/16 22:22, -2.2
2024/05/16 22:24, -2.2
2024/05/16 22:26, -1.1
2024/05/16 22:28, -2.2
2024/05/16 22:30, -1.1
2024/05/16 22:32, 0.0
2024/05/16 22:34, -1.1
2024/05/16 22:36, -2.2
2024/05/16 22:38, -2.2
2024/05/16 22:40, -1.1
2024/05/16 22:42, -1.1
2024/05/16 22:44, -1.1
2024/05/16 22:46, -1.1
2024/05/16 22:48, -1.1
2024/05/16 22:50, -1.1
2024/05/16 22:52, -1.1
2024/05/16 22:54, -1.1
2024/05/16 22:56, -1.1
2024/05/16 22:58, -1.1
2024/05/16 23:00, -1.1
2024/05/16 23:02, -2.2
2024/05/16 23:04, -2.2
2024/05/16 23:06, -2.2
2024/05/16 23:08, -2.2
2024/05/16 23:10, -2.2
2024/05/16 23:12, -2.2
2024/05/16 23:14, -2.2
2024/05/16 23:16, -2.2
2024/05/16 23:18, -2.2
2024/05/16 23:20, -3.3
2024/05/16 23:22, -2.2
2024/05/16 23:24, -2.2
2024/05/16 23:26, -3.3
2024/05/16 23:28, -3.3
2024/05/16 23:30, -3.3
2024/05/16 23:32, -2.2
2024/05/16 23:34, -2.2
2024/05/16 23:36, -2.2
2024/05/16 23:38, -2.2
2024/05/16 23:40, -2.2
2024/05/16 23:42, -2.2
2024/05/16 23:44, -2.2
2024/05/16 23:46, -2.2
2024/05/16 23:48, -2.2
2024/05/16 23:50, -2.2
2024/05/16 23:52, -2.2
2024/05/16 23:54, -2.2
2024/05/16 23:56, -1.1
2024/05/16 23:58, -1.1
2024/05/17 00:00, -1.1
2024/05/17 00:02, -1.1
2024/05/17 00:04, -1.1
2024/05/17 00:06, -1.1
2024/05/17 00:08, 0.0
2024/05/17 00:10, 0.0
2024/05/17 00:12, 0.0
2024/05/17 00:14, 0.0
2024/05/17 00:16, 1.1
2024/05/17 00:18, -1.1
2024/05/17 00:20, -1.1
2024/05/17 00:22, -1.1
2024/05/17 00:24, -1.1
2024/05/17 00:26, -1.1
2024/05/17 00:28, -1.1
2024/05/17 00:30, -1.1
2024/05/17 00:32, -1.1
2024/05/17 00:34, -1.1
2024/05/17 00:36, -2.2
2024/05/17 00:38, -2.2
2024/05/17 00:40, -2.2
2024/05/17 00:42, -2.2
2024/05/17 00:44, -2.2
2024/05/17 00:46, -2.2
2024/05/17 00:48, -2.2
2024/05/17 00:50, -2.2
2024/05/17 00:52, -2.2
2024/05/17 00:54, -2.2
2024/05/17 00:56, -2.2
2024/05/17 00:58, -2.2
2024/05/17 01:00, -2.2
2024/05/17 01:02, -2.2
2024/05/17 01:04, -2.2
2024/05/17 01:06, -2.2
2024/05/17 01:08, -2.2
2024/05/17 01:10, -2.2
2024/05/17 01:12, -2.2
2024/05/17 01:14, -2.2
2024/05/17 01:16, -2.2
2024/05/17 01:18, -2.2
2024/05/17 01:20, -2.2
2024/05/17 01:22, -2.2
2024/05/17 01:24, -2.2
2024/05/17 01:26, -2.2
2024/05/17 01:28, -2.2
2024/05/17 01:30, -2.2
2024/05/17 01:32, -2.2
2024/05/17 01:34, -2.2
2024/05/17 01:36, -2.2
2024/05/17 01:38, -2.2
2024/05/17 01:40, -2.2
2024/05/17 01:42, -2.2
2024/05/17 01:44, -2.2
2024/05/17 01:46, -2.2
2024/05/17 01:48, -2.2
2024/05/17 01:50, -2.2
2024/05/17 01:52, -2.2
2024/05/17 01:54, -2.2
2024/05/17 01:56, -2.2
2024/05/17 01:58, -2.2
2024/05/17 02:00, -2.2
2024/05/17 02:02, -2.2
2024/05/17 02:04, -2.2
2024/05/17 02:06, -2.2
2024/05/17 02:08, -2.2
2024/05/17 02:10, -2.2
2024/05/17 02:12, -2.2
2024/05/17 02:14, -2.2
2024/05/17 02:16, -2.2
2024/05/17 02:18, -2.2
2024/05/17 02:20, -2.2
2024/05/17 02:22, -2.2
2024/05/17 02:24, -1.1
2024/05/17 02:26, -2.2
2024/05/17 02:28, -2.2
2024/05/17 02:30, -2.2
2024/05/17 02:32, -2.2
2024/05/17 02:34, -2.2
2024/05/17 02:36, -1.1
2024/05/17 02:38, -1.1
2024/05/17 02:40, -2.2
2024/05/17 02:42, -1.1
2024/05/17 02:44, -1.1
2024/05/17 02:46, -1.1
2024/05/17 02:48, -2.2
2024/05/17 02:50, -2.2
2024/05/17 02:52, -2.2
2024/05/17 02:54, -2.2
2024/05/17 02:56, -2.2
2024/05/17 02:58, -2.2
2024/05/17 03:00, -2.2
2024/05/17 03:02, -2.2
2024/05/17 03:04, -2.2
2024/05/17 03:06, -2.2
2024/05/17 03:08, -2.2
2024/05/17 03:10, -2.2
2024/05/17 03:12, -2.2
2024/05/17 03:14, -2.2
2024/05/17 03:16, -2.2
2024/05/17 03:18, -2.2
2024/05/17 03:20, -2.2
2024/05/17 03:22, -2.2
2024/05/17 03:24, -2.2
2024/05/17 03:26, -2.2
2024/05/17 03:28, -2.2
2024/05/17 03:30, -2.2
2024/05/17 03:32, -2.2
2024/05/17 03:34, -2.2
2024/05/17 03:36, -2.2
2024/05/17 03:38, -2.2
2024/05/17 03:40, -2.2
2024/05/17 03:42, -2.2
2024/05/17 03:44, -2.2
2024/05/17 03:46, -2.2
2024/05/17 03:48, -2.2
2024/05/17 03:50, -1.1
2024/05/17 03:52, -2.2
2024/05/17 03:54, -1.1
2024/05/17 03:56, -2.2
2024/05/17 03:58, -2.2
2024/05/17 04:00, -2.2
2024/05/17 04:02, -2.2
2024/05/17 04:04, -1.1
2024/05/17 04:06, -2.2
2024/05/17 04:08, -2.2
2024/05/17 04:10, -2.2
2024/05/17 04:12, -2.2
2024/05/17 04:14, -2.2
2024/05/17 04:16, -2.2
2024/05/17 04:18, -2.2
2024/05/17 04:20, -1.1
2024/05/17 04:22, -1.1
2024/05/17 04:24, -1.1
2024/05/17 04:26, 0.0
2024/05/17 04:28, 0.0
2024/05/17 04:30, 0.0
2024/05/17 04:32, 0.0
2024/05/17 04:34, 0.0
2024/05/17 04:36, -1.1
2024/05/17 04:38, 0.0
2024/05/17 04:40, 0.0
2024/05/17 04:42, 0.0
2024/05/17 04:44, -1.1
2024/05/17 04:46, 0.0
2024/05/17 04:48, 0.0
2024/05/17 04:50, 0.0
2024/05/17 04:52, 0.0
2024/05/17 04:54, 0.0
2024/05/17 04:56, 0.0
2024/05/17 04:58, -1.1
2024/05/17 05:00, 0.0
2024/05/17 05:02, 0.0
2024/05/17 05:04, 0.0
2024/05/17 05:06, 0.0
2024/05/17 05:08, 0.0
2024/05/17 05:10, 0.0
2024/05/17 05:12, 0.0
2024/05/17 05:14, 0.0
2024/05/17 05:16, 1.1
2024/05/17 05:18, 1.1
2024/05/17 05:20, 0.0
2024/05/17 05:22, 0.0
2024/05/17 05:24, 0.0
2024/05/17 05:26, 1.1
2024/05/17 05:28, 1.1
2024/05/17 05:30, 1.1
2024/05/17 05:32, 0.0
2024/05/17 05:34, 1.1
2024/05/17 05:36, 0.0
2024/05/17 05:38, 1.1
2024/05/17 05:40, 1.1
2024/05/17 05:42, 1.1
2024/05/17 05:44, 1.1
2024/05/17 05:46, 1.1
2024/05/17 05:48, 1.1
2024/05/17 05:50, 0.0
2024/05/17 05:52, 1.1
2024/05/17 05:54, 0.0
2024/05/17 05:56, 0.0
2024/05/17 05:58, 0.0
2024/05/17 06:00, 0.0
2024/05/17 06:02, 1.1
2024/05/17 06:04, 0.0
2024/05/17 06:06, 0.0
2024/05/17 06:08, 1.1
2024/05/17 06:10, 0.0
2024/05/17 06:12, 0.0
2024/05/17 06:14, 0.0
2024/05/17 06:16, -1.1
2024/05/17 06:18, -1.1
2024/05/17 06:20, -1.1
2024/05/17 06:22, -1.1
2024/05/17 06:24, -1.1
2024/05/17 06:26, -1.1
2024/05/17 06:28, -1.1
2024/05/17 06:30, -1.1
2024/05/17 06:32, -1.1
2024/05/17 06:34, 0.0
2024/05/17 06:36, 0.0
2024/05/17 06:38, 0.0
2024/05/17 06:40, 0.0
2024/05/17 06:42, 0.0
2024/05/17 06:44, -1.1
2024/05/17 06:46, -1.1
2024/05/17 06:48, 0.0
2024/05/17 06:50, -1.1
2024/05/17 06:52, -1.1
2024/05/17 06:54, -1.1
2024/05/17 06:56, -1.1
2024/05/17 06:58, 0.0
2024/05/17 07:00, 0.0
2024/05/17 07:02, 0.0
2024/05/17 07:04, 0.0
2024/05/17 07:06, 1.1
2024/05/17 07:08, 1.1
2024/05/17 07:10, 1.1
2024/05/17 07:12, 1.1
2024/05/17 07:14, 1.1
2024/05/17 07:16, 1.1
2024/05/17 07:18, 0.0
2024/05/17 07:20, -1.1
2024/05/17 07:22, -1.1
2024/05/17 07:24, -1.1
2024/05/17 07:26, -1.1
2024/05/17 07:28, -1.1
2024/05/17 07:30, -1.1
2024/05/17 07:32, -1.1
2024/05/17 07:34, -1.1
2024/05/17 07:36, 0.0
2024/05/17 07:38, 0.0
2024/05/17 07:40, 0.0
2024/05/17 07:42, -1.1
2024/05/17 07:44, 0.0
2024/05/17 07:46, 0.0
2024/05/17 07:48, 0.0
2024/05/17 07:50, -1.1
2024/05/17 07:52, -1.1
2024/05/17 07:54, -1.1
2024/05/17 07:56, -1.1
2024/05/17 07:58, -1.1
2024/05/17 08:00, -1.1
2024/05/17 08:02, -1.1
2024/05/17 08:04, -1.1
2024/05/17 08:06, -1.1
2024/05/17 08:08, -1.1
2024/05/17 08:10, -1.1
2024/05/17 08:12, -1.1
2024/05/17 08:14, -1.1
2024/05/17 08:16, -1.1
2024/05/17 08:18, -2.2
2024/05/17 08:20, -2.2
2024/05/17 08:22, -1.1
2024/05/17 08:24, -1.1
2024/05/17 08:26, -1.1
2024/05/17 08:28, -1.1
2024/05/17 08:30, -1.1
2024/05/17 08:32, -1.1
2024/05/17 08:34, -1.1
2024/05/17 08:36, -2.2
2024/05/17 08:38, -1.1
2024/05/17 08:40, -1.1
2024/05/17 08:42, -1.1
2024/05/17 08:44, 0.0
2024/05/17 08:46, -1.1
2024/05/17 08:48, -1.1
2024/05/17 08:50, 0.0
2024/05/17 08:52, 0.0
2024/05/17 08:54, -1.1
2024/05/17 08:56, -1.1
2024/05/17 08:58, -1.1
2024/05/17 09:00, -1.1
2024/05/17 09:02, -1.1
2024/05/17 09:04, 0.0
2024/05/17 09:06, -1.1
2024/05/17 09:08, -2.2
2024/05/17 09:10, -2.2
2024/05/17 09:12, -2.2
2024/05/17 09:14, -1.1
2024/05/17 09:16, -2.2
2024/05/17 09:18, -2.2
2024/05/17 09:20, -2.2
2024/05/17 09:22, -2.2
2024/05/17 09:24, -2.2
2024/05/17 09:26, -1.1
2024/05/17 09:28, -1.1
2024/05/17 09:30, -2.2
2024/05/17 09:32, -2.2
2024/05/17 09:34, -1.1
2024/05/17 09:36, -2.2
2024/05/17 09:38, -2.2
2024/05/17 09:40, -1.1
2024/05/17 09:42, -1.1
2024/05/17 09:44, -1.1
2024/05/17 09:46, -1.1
2024/05/17 09:48, 0.0
2024/05/17 09:50, 0.0
2024/05/17 09:52, 0.0
2024/05/17 09:54, 0.0
2024/05/17 09:56, -1.1
2024/05/17 09:58, -1.1
2024/05/17 10:00, -1.1
2024/05/17 10:02, -1.1
2024/05/17 10:04, -1.1
2024/05/17 10:06, -1.1
2024/05/17 10:08, -1.1
2024/05/17 10:10, -1.1
2024/05/17 10:12, -1.1
2024/05/17 10:14, -1.1
2024/05/17 10:16, -1.1
2024/05/17 10:18, -1.1
2024/05/17 10:20, -1.1
2024/05/17 10:22, -1.1
2024/05/17 10:24, -1.1
2024/05/17 10:26, -1.1
2024/05/17 10:28, -1.1
2024/05/17 10:30, 0.0
2024/05/17 10:32, 0.0
2024/05/17 10:34, 0.0
2024/05/17 10:36, 0.0
2024/05/17 10:38, 1.1
2024/05/17 10:40, 1.1
2024/05/17 10:42, 0.0
2024/05/17 10:44, 0.0
2024/05/17 10:46, 1.1
2024/05/17 10:48, 0.0
2024/05/17 10:50, 0.0
2024/05/17 10:52, 0.0
2024/05/17 10:54, 0.0
2024/05/17 10:56, 1.1
2024/05/17 10:58, 0.0
2024/05/17 11:00, 0.0
2024/05/17 11:02, 0.0
2024/05/17 11:04, 1.1
2024/05/17 11:06, 1.1
2024/05/17 11:08, 1.1
2024/05/17 11:10, 1.1
2024/05/17 11:12, 0.0
2024/05/17 11:14, 0.0
2024/05/17 11:16, 0.0
2024/05/17 11:18, 0.0
2024/05/17 11:20, 0.0
2024/05/17 11:22, 0.0
2024/05/17 11:24, 0.0
2024/05/17 11:26, 0.0
2024/05/17 11:28, 0.0
2024/05/17 11:30, 0.0
2024/05/17 11:32, 0.0
2024/05/17 11:34, 0.0
2024/05/17 11:36, 0.0
2024/05/17 11:38, 0.0
2024/05/17 11:40, -1.1
2024/05/17 11:42, 0.0
2024/05/17 11:44, 0.0
2024/05/17 11:46, 0.0
2024/05/17 11:48, 0.0
2024/05/17 11:50, 0.0
2024/05/17 11:52, -1.1
2024/05/17 11:54, 0.0
2024/05/17 11:56, 0.0
2024/05/17 11:58, 0.0
2024/05/17 12:00, 0.0
2024/05/17 12:02, 0.0
2024/05/17 12:04, 0.0
2024/05/17 12:06, 1.1
2024/05/17 12:08, 0.0
2024/05/17 12:10, 1.1
2024/05/17 12:12, 1.1
2024/05/17 12:14, 1.1
2024/05/17 12:16, 2.2
2024/05/17 12:18, 1.1
2024/05/17 12:20, 1.1
2024/05/17 12:22, 2.2
2024/05/17 12:24, 2.2
2024/05/17 12:26, -1.1
2024/05/17 12:28, -1.1
2024/05/17 12:30, -2.2
2024/05/17 12:32, -1.1
2024/05/17 12:34, -1.1
2024/05/17 12:36, -1.1
2024/05/17 12:38, -1.1
2024/05/17 12:40, -1.1
2024/05/17 12:42, -1.1
2024/05/17 12:44, -1.1
2024/05/17 12:46, -1.1
2024/05/17 12:48, -1.1
2024/05/17 12:50, 0.0
2024/05/17 12:52, -1.1
2024/05/17 12:54, -1.1
2024/05/17 12:56, 0.0
2024/05/17 12:58, 0.0
2024/05/17 13:00, -1.1
2024/05/17 13:02, 0.0
2024/05/17 13:04, -1.1
2024/05/17 13:06, -1.1
2024/05/17 13:08, -1.1
2024/05/17 13:10, -1.1
2024/05/17 13:12, -1.1
2024/05/17 13:14, -1.1
2024/05/17 13:16, -1.1
2024/05/17 13:18, -1.1
2024/05/17 13:20, -2.2
2024/05/17 13:22, -1.1
2024/05/17 13:24, -2.2
2024/05/17 13:26, -2.2
2024/05/17 13:28, -2.2
2024/05/17 13:30, -2.2
2024/05/17 13:32, -2.2
2024/05/17 13:34, -2.2
2024/05/17 13:36, -2.2
2024/05/17 13:38, -2.2
2024/05/17 13:40, -1.1
2024/05/17 13:42, -2.2
2024/05/17 13:44, -2.2
2024/05/17 13:46, -2.2
2024/05/17 13:48, -2.2
2024/05/17 13:50, -2.2
2024/05/17 13:52, -2.2
2024/05/17 13:54, -2.2
2024/05/17 13:56, -1.1
2024/05/17 13:58, -1.1
2024/05/17 14:00, -1.1
2024/05/17 14:02, 0.0
2024/05/17 14:04, -1.1
2024/05/17 14:06, 0.0
2024/05/17 14:08, 0.0
2024/05/17 14:10, 0.0
2024/05/17 14:12, 1.1
2024/05/17 14:14, 1.1
2024/05/17 14:16, 1.1
2024/05/17 14:18, 1.1
2024/05/17 14:20, 0.0
2024/05/17 14:22, 0.0
2024/05/17 14:24, 0.0
2024/05/17 14:26, 0.0
2024/05/17 14:28, 1.1
2024/05/17 14:30, 0.0
2024/05/17 14:32, 1.1
2024/05/17 14:34, 1.1
2024/05/17 14:36, 1.1
2024/05/17 14:38, 1.1
2024/05/17 14:40, 1.1
2024/05/17 14:42, 1.1
2024/05/17 14:44, 0.0
2024/05/17 14:46, 0.0
2024/05/17 14:48, 1.1
2024/05/17 14:50, 0.0
2024/05/17 14:52, 0.0
2024/05/17 14:54, 0.0
2024/05/17 14:56, 0.0
2024/05/17 14:58, 0.0
2024/05/17 15:00, 0.0
2024/05/17 15:02, -1.1
2024/05/17 15:04, -1.1
2024/05/17 15:06, -1.1
2024/05/17 15:08, -1.1
2024/05/17 15:10, -1.1
2024/05/17 15:12, -2.2
2024/05/17 15:14, -2.2
2024/05/17 15:16, -2.2
2024/05/17 15:18, -1.1
2024/05/17 15:20, -1.1
2024/05/17 15:22, -1.1
2024/05/17 15:24, 0.0
2024/05/17 15:26, 1.1
2024/05/17 15:28, 0.0
2024/05/17 15:30, 1.1
2024/05/17 15:32, 0.0
2024/05/17 15:34, 0.0
2024/05/17 15:36, 2.2
2024/05/17 15:38, 1.1
2024/05/17 15:40, -1.1
2024/05/17 15:42, -2.2
2024/05/17 15:44, -2.2
2024/05/17 15:46, -2.2
2024/05/17 15:48, -2.2
2024/05/17 15:50, -2.2
2024/05/17 15:52, -2.2
2024/05/17 15:54, -2.2
2024/05/17 15:56, -2.2
2024/05/17 15:58, -2.2
2024/05/17 16:00, -2.2
2024/05/17 16:02, -2.2
2024/05/17 16:04, -2.2
2024/05/17 16:06, -2.2
2024/05/17 16:08, -1.1
2024/05/17 16:10, -1.1
2024/05/17 16:12, -1.1
2024/05/17 16:14, -1.1
2024/05/17 16:16, -1.1
2024/05/17 16:18, -1.1
2024/05/17 16:20, -2.2
2024/05/17 16:22, -1.1
2024/05/17 16:24, -1.1
2024/05/17 16:26, -1.1
2024/05/17 16:28, -1.1
2024/05/17 16:30, -1.1
2024/05/17 16:32, -1.1
2024/05/17 16:34, -1.1
2024/05/17 16:36, -2.2
2024/05/17 16:38, -2.2
2024/05/17 16:40, -2.2
2024/05/17 16:42, -2.2
2024/05/17 16:44, -1.1
2024/05/17 16:46, -1.1
2024/05/17 16:48, -1.1
2024/05/17 16:50, 0.0
2024/05/17 16:52, 0.0
2024/05/17 16:54, 1.1
2024/05/17 16:56, 1.1
2024/05/17 16:58, 1.1
2024/05/17 17:00, 2.2
2024/05/17 17:02, 2.2
2024/05/17 17:04, 2.2
2024/05/17 17:06, 2.2
2024/05/17 17:08, 2.2
2024/05/17 17:10, 2.2
2024/05/17 17:12, 2.2
2024/05/17 17:14, 2.2
2024/05/17 17:16, 2.2
2024/05/17 17:18, 2.2
2024/05/17 17:20, 2.2
2024/05/17 17:22, 3.3
2024/05/17 17:24, 3.3
2024/05/17 17:26, 2.2
2024/05/17 17:28, 2.2
2024/05/17 17:30, 2.2
2024/05/17 17:32, 2.2
2024/05/17 17:34, 2.2
2024/05/17 17:36, 2.2
2024/05/17 17:38, 2.2
2024/05/17 17:40, 1.1
2024/05/17 17:42, 1.1
2024/05/17 17:44, 1.1
2024/05/17 17:46, 1.1
2024/05/17 17:48, 0.0
2024/05/17 17:50, 0.0
2024/05/17 17:52, 1.1
2024/05/17 17:54, 1.1
2024/05/17 17:56, 2.2
2024/05/17 17:58, 3.3
2024/05/17 18:00, 3.3
2024/05/17 18:02, 3.3
2024/05/17 18:04, 3.3
2024/05/17 18:06, 3.3
2024/05/17 18:08, 2.2
2024/05/17 18:10, 2.2
2024/05/17 18:12, 2.2
2024/05/17 18:14, 2.2
2024/05/17 18:16, 2.2
2024/05/17 18:18, 1.1
2024/05/17 18:20, 1.1
2024/05/17 18:22, 1.1
2024/05/17 18:24, 1.1
2024/05/17 18:26, 1.1
2024/05/17 18:28, 0.0
2024/05/17 18:30, -1.1
2024/05/17 18:32, 0.0
2024/05/17 18:34, 0.0
2024/05/17 18:36, -1.1
2024/05/17 18:38, -1.1
2024/05/17 18:40, -1.1
2024/05/17 18:42, -1.1
2024/05/17 18:44, -1.1
2024/05/17 18:46, 0.0
2024/05/17 18:48, 1.1
2024/05/17 18:50, 1.1
2024/05/17 18:52, 2.2
2024/05/17 18:54, 2.2
2024/05/17 18:56, 2.2
2024/05/17 18:58, 2.2
2024/05/17 19:00, 2.2
2024/05/17 19:02, 2.2
2024/05/17 19:04, 2.2
2024/05/17 19:06, 2.2
2024/05/17 19:08, 2.2
2024/05/17 19:10, 2.2
2024/05/17 19:12, 2.2
2024/05/17 19:14, 2.2
2024/05/17 19:16, 2.2
2024/05/17 19:18, 2.2
2024/05/17 19:20, 1.1
2024/05/17 19:22, 1.1
2024/05/17 19:24, 1.1
2024/05/17 19:26, 1.1
2024/05/17 19:28, 0.0
2024/05/17 19:30, 0.0
2024/05/17 19:32, 1.1
2024/05/17 19:34, 1.1
2024/05/17 19:36, 0.0
2024/05/17 19:38, 1.1
2024/05/17 19:40, 2.2
2024/05/17 19:42, 1.1
2024/05/17 19:44, 1.1
2024/05/17 19:46, 2.2
2024/05/17 19:48, 2.2
2024/05/17 19:50, 1.1
2024/05/17 19:52, 2.2
2024/05/17 19:54, 2.2
2024/05/17 19:56, 1.1
2024/05/17 19:58, 2.2
2024/05/17 20:00, 2.2
2024/05/17 20:02, 2.2
2024/05/17 20:04, 2.2
2024/05/17 20:06, 2.2
2024/05/17 20:08, 2.2
2024/05/17 20:10, 3.3
2024/05/17 20:12, 3.3
2024/05/17 20:14, 5.6
2024/05/17 20:16, 4.4
2024/05/17 20:18, 5.6
2024/05/17 20:20, 5.6
2024/05/17 20:22, 5.6
2024/05/17 20:24, 5.6
2024/05/17 20:26, 5.6
2024/05/17 20:28, 4.4
2024/05/17 20:30, 4.4
2024/05/17 20:32, 3.3
2024/05/17 20:34, 3.3
2024/05/17 20:36, 3.3
2024/05/17 20:38, 3.3
2024/05/17 20:40, 3.3
2024/05/17 20:42, 2.2
2024/05/17 20:44, 2.2
2024/05/17 20:46, 2.2
2024/05/17 20:48, 2.2
2024/05/17 20:50, 2.2
2024/05/17 20:52, 4.4
2024/05/17 20:54, 3.3
2024/05/17 20:56, 2.2
2024/05/17 20:58, 2.2
2024/05/17 21:00, 2.2
2024/05/17 21:02, 1.1
2024/05/17 21:04, 0.0
2024/05/17 21:06, 1.1
2024/05/17 21:08, 1.1
2024/05/17 21:10, -1.1
2024/05/17 21:12, -1.1
2024/05/17 21:14, -1.1
2024/05/17 21:16, -1.1
2024/05/17 21:18, 1.1
2024/05/17 21:20, 1.1
2024/05/17 21:22, 0.0
2024/05/17 21:24, 1.1
2024/05/17 21:26, 2.2
2024/05/17 21:28, 0.0
2024/05/17 21:30, -1.1
2024/05/17 21:32, 0.0
2024/05/17 21:34, 0.0
2024/05/17 21:36, 1.1
2024/05/17 21:38, 2.2
2024/05/17 21:40, 2.2
2024/05/17 21:42, 1.1
2024/05/17 21:44, 2.2
2024/05/17 21:46, 1.1
2024/05/17 21:48, 1.1
2024/05/17 21:50, 1.1
2024/05/17 21:52, 1.1
2024/05/17 21:54, 1.1
2024/05/17 21:56, 1.1
2024/05/17 21:58, 1.1
2024/05/17 22:00, 1.1
2024/05/17 22:02, 2.2
2024/05/17 22:04, 2.2
2024/05/17 22:06, 2.2
2024/05/17 22:08, 2.2
2024/05/17 22:10, 2.2
2024/05/17 22:12, 2.2
2024/05/17 22:14, 2.2
2024/05/17 22:16, 2.2
2024/05/17 22:18, 2.2
2024/05/17 22:20, 3.3
2024/05/17 22:22, 3.3
2024/05/17 22:24, 2.2
2024/05/17 22:26, 3.3
2024/05/17 22:28, 3.3
2024/05/17 22:30, 2.2
2024/05/17 22:32, 0.0
2024/05/17 22:34, 0.0
2024/05/17 22:36, 0.0
2024/05/17 22:38, 0.0
2024/05/17 22:40, 2.2
2024/05/17 22:42, 2.2
2024/05/17 22:44, 2.2
2024/05/17 22:46, 2.2
2024/05/17 22:48, 2.2
2024/05/17 22:50, 2.2
2024/05/17 22:52, 2.2
2024/05/17 22:54, 2.2
2024/05/17 22:56, 2.2
2024/05/17 22:58, 2.2
2024/05/17 23:00, 2.2
2024/05/17 23:02, 2.2
2024/05/17 23:04, 2.2
2024/05/17 23:06, 2.2
2024/05/17 23:08, 2.2
2024/05/17 23:10, 2.2
2024/05/17 23:12, 2.2